, CO

(GMT )
Cottonwood Pass

Weather History for K7BM - January, 2014

Change the Weather History Date:

Monday, January 6, 2014

  Actual Average Record
Temperature  
Mean Temperature - -  
Max Temperature - - - ()
Min Temperature - - - ()
Moisture  
Dew Point -    
Average Humidity    
Maximum Humidity    
Minimum Humidity    
Precipitation  
Precipitation 0.00 in - - ()
Sea Level Pressure  
Sea Level Pressure 30.13 in    
Wind  
Wind Speed 13 mph (SW)    
Max Wind Speed 24 mph    
Max Gust Speed 50 mph    
Visibility 10 miles    
Events      
T = Trace of Precipitation, MM = Missing Value Source: NWS Daily Summary

Daily Weather History Graph

Daily Weather History Graph

Search for Another Location

Airport or City:

Trip Planner

Search our weather history database for the weather conditions in past years. The results will help you decide how hot, cold, wet, or windy it might be!

Date:

Astronomy

Jan. 06, 2014 Rise Set
Actual Time 7:23 AM MST 4:58 PM MST
Civil Twilight 6:53 AM MST 5:27 PM MST
Nautical Twilight 6:20 AM MST 6:01 PM MST
Astronomical Twilight 5:48 AM MST 6:33 PM MST
Moon 10:44 AM MST (1/6) 11:30 PM MST (1/6)
Length of Visible Light 10h 34m
Length of Day
9h 34m
Waxing Crescent, 35% of the Moon is Illuminated
Jan 6
Waxing Crescent
Jan 7
First Quarter
Jan 15
Full
Jan 23
Last Quarter
Jan 30
New

Hourly Weather History & Observations

Time (MST) Temp. Dew Point Humidity Pressure Visibility Wind Dir Wind Speed Gust Speed Precip Events Conditions
12:14 AM - - N/A% 29.96 in 10.0 mi West 21.9 mph 44.9 mph N/A   Clear
12:35 AM - - N/A% 29.94 in 10.0 mi NW 12.7 mph 41.4 mph N/A   Clear
12:55 AM - - N/A% 29.94 in 10.0 mi SSE 4.6 mph 16.1 mph N/A   Clear
1:15 AM - - N/A% 29.95 in 10.0 mi NNW 6.9 mph 36.8 mph N/A   Clear
1:35 AM - - N/A% 29.95 in 10.0 mi West 9.2 mph 34.5 mph N/A   Clear
1:55 AM - - N/A% 29.97 in 10.0 mi SSW 12.7 mph 49.5 mph N/A   Clear
2:15 AM - - N/A% 29.98 in 10.0 mi South 16.1 mph 19.6 mph N/A   Clear
2:35 AM - - N/A% 29.99 in 10.0 mi South 10.4 mph 21.9 mph N/A   Clear
2:55 AM - - N/A% 29.99 in 10.0 mi SE 11.5 mph 19.6 mph N/A   Clear
3:15 AM - - N/A% 29.99 in 10.0 mi SSE 19.6 mph 26.5 mph N/A   Clear
3:34 AM - - N/A% 29.99 in 10.0 mi ESE 13.8 mph 21.9 mph N/A   Clear
3:55 AM - - N/A% 30.02 in 10.0 mi SE 12.7 mph - N/A   Clear
4:15 AM - - N/A% 30.03 in 10.0 mi SSE 4.6 mph - N/A   Clear
4:35 AM - - N/A% 30.04 in 10.0 mi WSW 8.1 mph - N/A   Clear
4:54 AM - - N/A% 30.04 in 10.0 mi NNW 12.7 mph 27.6 mph N/A   Clear
5:15 AM - - N/A% 30.04 in 10.0 mi WSW 8.1 mph - N/A   Clear
5:34 AM - - N/A% 30.04 in 10.0 mi West 13.8 mph 28.8 mph N/A   Clear
5:55 AM - - N/A% 30.05 in 10.0 mi SE 6.9 mph 23.0 mph N/A   Clear
6:15 AM - - N/A% 30.05 in 10.0 mi South 5.8 mph 17.3 mph N/A   Clear
6:35 AM - - N/A% 30.05 in 10.0 mi SSE 15.0 mph 26.5 mph N/A   Clear
6:54 AM - - N/A% 30.07 in 10.0 mi SE 6.9 mph 20.7 mph N/A   Clear
7:15 AM - - N/A% 30.08 in 10.0 mi South 4.6 mph 19.6 mph N/A   Clear
7:35 AM - - N/A% 30.07 in 10.0 mi SSE 17.3 mph 21.9 mph N/A   Clear
7:54 AM - - N/A% 30.09 in 10.0 mi South 15.0 mph 25.3 mph N/A   Clear
8:15 AM - - N/A% 30.11 in 10.0 mi SSE 17.3 mph 32.2 mph N/A   Clear
8:34 AM - - N/A% 30.14 in 10.0 mi SE 12.7 mph 18.4 mph N/A   Clear
8:55 AM - - N/A% 30.18 in 10.0 mi SSE 4.6 mph - N/A   Clear
9:15 AM - - N/A% 30.19 in 10.0 mi SE 8.1 mph - N/A   Clear
9:35 AM - - N/A% 30.19 in 10.0 mi SSE 15.0 mph - N/A   Clear
9:55 AM - - N/A% 30.19 in 10.0 mi SSE 15.0 mph - N/A   Clear
10:15 AM - - N/A% 30.19 in 10.0 mi SSE 12.7 mph - N/A   Clear
10:35 AM - - N/A% 30.20 in 10.0 mi SSE 10.4 mph - N/A   Clear
10:55 AM - - N/A% 30.19 in 10.0 mi SE 6.9 mph - N/A   Clear
11:15 AM - - N/A% 30.19 in 10.0 mi SE 10.4 mph - N/A   Clear
11:35 AM - - N/A% 30.18 in 10.0 mi SE 12.7 mph - N/A   Clear
11:55 AM - - N/A% 30.18 in 10.0 mi SE 8.1 mph - N/A   Clear
12:15 PM - - N/A% 30.17 in 10.0 mi SE 10.4 mph - N/A   Clear
12:35 PM - - N/A% 30.16 in 10.0 mi ESE 4.6 mph - N/A   Clear
12:55 PM - - N/A% 30.16 in 10.0 mi SSE 6.9 mph - N/A   Clear
1:15 PM - - N/A% 30.16 in 10.0 mi SE 6.9 mph - N/A   Clear
1:35 PM - - N/A% 30.17 in 10.0 mi Calm Calm - N/A   Clear
1:55 PM - - N/A% 30.17 in 10.0 mi SSE 3.5 mph - N/A   Clear
2:15 PM - - N/A% 30.17 in 10.0 mi WSW 24.2 mph 33.4 mph N/A   Clear
2:35 PM - - N/A% 30.18 in 10.0 mi West 19.6 mph 35.7 mph N/A   Clear
2:55 PM - - N/A% 30.18 in 10.0 mi West 21.9 mph 33.4 mph N/A   Clear
3:15 PM - - N/A% 30.18 in 10.0 mi WNW 15.0 mph 23.0 mph N/A   Clear
3:35 PM - - N/A% 30.19 in 10.0 mi NW 12.7 mph 25.3 mph N/A   Clear
3:54 PM - - N/A% 30.20 in 10.0 mi West 18.4 mph 28.8 mph N/A   Clear
4:15 PM - - N/A% 30.19 in 10.0 mi West 16.1 mph 33.4 mph N/A   Clear
4:35 PM - - N/A% 30.18 in 10.0 mi WNW 16.1 mph 31.1 mph N/A   Clear
4:55 PM - - N/A% 30.19 in 10.0 mi WNW 18.4 mph 31.1 mph N/A   Clear
5:15 PM - - N/A% 30.19 in 10.0 mi WNW 24.2 mph 40.3 mph N/A   Clear
5:35 PM - - N/A% 30.19 in 10.0 mi WNW 21.9 mph 39.1 mph N/A   Clear
5:55 PM - - N/A% 30.19 in 10.0 mi NNW 16.1 mph 33.4 mph N/A   Clear
6:15 PM - - N/A% 30.20 in 10.0 mi NNW 16.1 mph 27.6 mph N/A   Clear
6:34 PM - - N/A% 30.20 in 10.0 mi NNW 18.4 mph 31.1 mph N/A   Clear
6:55 PM - - N/A% 30.20 in 10.0 mi NW 17.3 mph 28.8 mph N/A   Clear
7:14 PM - - N/A% 30.21 in 10.0 mi NW 17.3 mph 28.8 mph N/A   Clear
7:35 PM - - N/A% 30.19 in 10.0 mi NNW 16.1 mph 33.4 mph N/A   Clear
7:55 PM - - N/A% 30.20 in 10.0 mi WNW 15.0 mph 27.6 mph N/A   Clear
8:15 PM - - N/A% 30.21 in 10.0 mi NW 15.0 mph 27.6 mph N/A   Clear
8:35 PM - - N/A% 30.20 in 10.0 mi NW 17.3 mph 24.2 mph N/A   Clear
8:54 PM - - N/A% 30.21 in 10.0 mi West 21.9 mph 40.3 mph N/A   Clear
9:15 PM - - N/A% 30.20 in 10.0 mi WNW 19.6 mph 36.8 mph N/A   Clear
9:35 PM - - N/A% 30.22 in 10.0 mi WNW 17.3 mph 27.6 mph N/A   Clear
9:55 PM - - N/A% 30.21 in 10.0 mi NNW 12.7 mph 28.8 mph N/A   Clear
10:15 PM - - N/A% 30.21 in 10.0 mi NNW 12.7 mph 19.6 mph N/A   Clear
10:35 PM - - N/A% 30.22 in 10.0 mi NW 12.7 mph 28.8 mph N/A   Clear
10:55 PM - - N/A% 30.21 in 10.0 mi NW 13.8 mph 28.8 mph N/A   Clear
11:15 PM - - N/A% 30.21 in 10.0 mi NNW 13.8 mph 25.3 mph N/A   Clear
11:35 PM - - N/A% 30.22 in 10.0 mi NNW 8.1 mph 16.1 mph N/A   Clear
11:55 PM - - N/A% 30.21 in 10.0 mi North 8.1 mph - N/A   Clear